LEMUR 2 ZO

导读 | 豆包AI

LEMUR 2 ZO是美国于2018年12月27日发射的3U立方星,属于Spire全球公司的Lemur-2低轨多用途接收卫星星座。卫星运行在400-600千米近地轨道,主要承担无线电掩星探测、船舶自动识别系统跟踪任务,部分同系列卫星还搭载GNSS反射测量或极化无线电掩星传感器,可为气象研究、海事监测提供数据支持。

Basic Information
目录编号:
43886
目录名称:
LEMUR 2 ZO
国际标识:
2018-111L
轨道中心:
EARTH
卫星名称:
LEMUR 2 ZO
卫星全名:
--
卫星状态:
已陨落 最后检测时间 2025-05-13
发射日期:
2018-12-27 UTC
国别 :
美国 (US)
星等 :
--
Orbit Information
数据来源 国际轨道数据
星历时间: 2025-05-09T12:54:17+0800
轨道信息已过期310天
半长轴: 6563.382km
偏心率: 0.0009022
轨道倾角: 97.567°
近地点辐角 213.834°
升交点赤经 60.975°
平近点角 146.238°
近地点: 179.325km
远地点: 191.169km
周期: 88.196分钟
每日圈数: 16.327185
Detailed Information
使用方式:
暂无